Regional Weather Roundup
Issued by NWS

Home | Current Version | Previous Version | Text Only | Print | Product List | Glossary On
Versions: 1 2 3 4 5 6 7 8 9 10 11 12 13 14 15 16 17 18 19 20 21 22 23 24 25 26 27 28 29 30 31 32 33 34 35 36 37 38 39 40 41 42 43 44 45 46 47 48 49 50
000
ASUS45 KREV 191010
RWRNV
NEVADA REGIONAL WEATHER ROUNDUP
NATIONAL WEATHER SERVICE RENO NV
300 AM PDT FRI SEP 19 2014

NOTE: "FAIR" INDICATES FEW OR NO CLOUDS BELOW 12,000 FEET WITH NO
SIGNIFICANT WEATHER AND/OR OBSTRUCTIONS TO VISIBILITY.

NVZ001-003-004-191100-
WESTERN NEVADA

CITY           SKY/WX    TMP DP  RH WIND       PRES   REMARKS
RENO           PTCLDY    62  44  51 W5        30.04S HAZE
CARSON CITY    MOCLDY    61  39  44 NE6       30.04F
MINDEN         FAIR      50  41  71 E6        30.06S HAZE
SLIDE MTN        N/A     43  32  65 NE18        N/A
PYRAMID LAKE     N/A     66 N/A N/A NW2         N/A
FALLON         CLOUDY    63  47  55 NW6       29.98S
LOVELOCK       CLOUDY    68  40  35 N3        29.97S
HAWTHORNE      CLEAR     66  41  39 W10       29.99S
$$

NVZ002-CAZ072-073-191100-
NORTHERN AND CENTRAL SIERRA

CITY           SKY/WX    TMP DP  RH WIND       PRES   REMARKS
S. LAKE TAHOE  CLOUDY    48  41  76 CALM      30.11S
TRUCKEE        FOG       37  36  93 CALM      30.13S VSB 1/4
SQUAW VLY 8000 NOT AVBL
SUSANVILLE     CLEAR     52  41  66 SW3       30.06
BLUE CANYON    CLOUDY    60  40  47 NE6       30.06S HAZE
MAMMOTH LAKES  CLOUDY    54  41  62 W8        30.12F
$$

NVZ030-031-036-191100-
NORTHERN NEVADA

CITY           SKY/WX    TMP DP  RH WIND       PRES   REMARKS
ELKO           CLEAR     55  51  86 N6        30.03S
WINNEMUCCA     CLOUDY    60  38  43 E3        30.01S
WENDOVER       CLEAR     63  52  67 CALM      29.98R
$$

NVZ035-037-191100-
CENTRAL NEVADA

CITY           SKY/WX    TMP DP  RH WIND       PRES   REMARKS
ELY            MOCLDY    51  41  68 S5        30.09R
EUREKA           N/A     48  40  73 S6        30.07R
$$

NVZ013-014-191100-
SOUTH CENTRAL NEVADA

CITY           SKY/WX    TMP DP  RH WIND       PRES   REMARKS
TONOPAH        PTCLDY    57  36  45 NE8       30.01R
$$

NVZ017-020-022-191100-
SOUTHERN NEVADA

CITY           SKY/WX    TMP DP  RH WIND       PRES   REMARKS
LAS VEGAS      CLEAR     79  45  29 S14       29.75R
N. LAS VEGAS   CLEAR     80  43  26 CALM      29.78R
NELLIS AFB     CLEAR     82  47  29 S7        29.77R
HENDERSON      CLEAR     76  45  33 SW12      29.82S
MERCURY        CLEAR     73  46  38 SW10      29.86R
$$


USA.gov is the U.S. government's official web portal to all federal, state and local government web resources and services.